SATCOM 3 DEB, 49959

Orbit data source: Space-Track

SATCOM 3 DEB, 49959 is space debris in HEO originally from a launch on Fri, 07 Dec 1979 UTC launched from the Air Force Eastern Test Range (AFETR). Debris objects in space refer to the collection of defunct objects orbiting the Earth. Examples of debris include non-operational satellites, rocket bodies, and fragments generated from explosions, collisions, or faulty payload assembly.

Loading next visibility...
Identifier
49959, 1979-101AD
Orbit
HEO
Country
Flag of USUS
Related business
Manufacturer
Unknown
Mission
Spacecraft
Bus & Motor
Unknown
Mass
Unknown
Launch date (UTC)
1979-12-07 (47 years ago)
Launch vehicle
Unknown
Launch site
Air Force Eastern Test Range (AFETR)
Object type
Payload
Rocket body
Debris
Shape & HBR
Unknown shape, 1.1 m
Radar Cross Section
Medium (>0.1 m² and <1 m²)

Expand to show TLE details & history
Last TLE update: 3 months ago

TLE from 3 months ago
0 SATCOM 3 DEB
1 49959U 79101AD  26091.47745580 -.00000104  00000-0  00000-0 0  9998
2 49959   7.2251 129.0927 4758063  25.3419  16.3023  1.80715817 81688
Epoch: 2026-04-01T11:27Z
TLE epoch observation values (Epoch: 2026-04-01T11:27:32.181Z)
Latitude
6.94395°
Longitude
-159.47627°
Altitude
10,301.171 km
Speed
5.813 km/s
True Right ascension
13h 28m 59s
True Declination
6° 55' 35"
Sunlit
Object was in full shadow at epoch
Visualization orbit readout
Latitude
Unknown
Longitude
Unknown
Altitude
Unknown
Speed
Unknown
Apparent Right ascension
Unknown
Apparent Declination
Unknown
Sunlit
N/A
Visualization observer readout
Local Sidereal Time
17:13:34
Azimuth
Unknown
Elevation
Unknown
Doppler factor
Unknown
Orbital elements
Apogee altitude
35,643.008 km
Perigee altitude
8,547.412 km
Semi-major axis
28,473.347 km
Eccentricity
0.47581
Inclination
7.2251°
RAAN
129.0927°
Arg. of periapsis
25.3419°
True anomaly
48.24662°
Mean anomaly
16.3023°
Eccentric anomaly
29.88625°
Mean motion
0.45174 °/min
Orbital period
796.92 mins
BSTAR
0
Loading maneuver chart data...
Computing Atmospheric mass density...
Loading historical data...
Loading historical data...
Loading historical data...
Loading historical data...
Loading historical data...
Loading historical data...
Loading historical data...

Documentation

Showing up to 5 results
|